TimePDT,TemperatureF,Dew PointF,Humidity,Sea Level PressureIn,VisibilityMPH,Wind Direction,Wind SpeedMPH,Gust SpeedMPH,PrecipitationIn,Events,Conditions,WindDirDegrees,DateUTC
12:54 AM,69.1,48.0,47,30.01,10.0,Calm,Calm,-,N/A,,Clear,0,2012-10-06 07:54:00
1:54 AM,66.9,48.0,51,30.02,10.0,Calm,Calm,-,N/A,,Clear,0,2012-10-06 08:54:00
2:54 AM,63.0,50.0,63,30.02,10.0,NW,4.6,-,N/A,,Clear,310,2012-10-06 09:54:00
3:54 AM,61.0,53.1,75,30.01,10.0,NNW,6.9,-,N/A,,Clear,330,2012-10-06 10:54:00
4:54 AM,60.1,52.0,75,30.02,10.0,NNW,4.6,-,N/A,,Clear,340,2012-10-06 11:54:00
5:54 AM,59.0,52.0,78,30.03,10.0,North,3.5,-,N/A,,Clear,360,2012-10-06 12:54:00
6:54 AM,57.9,51.1,78,30.04,10.0,Calm,Calm,-,N/A,,Clear,0,2012-10-06 13:54:00
7:54 AM,60.1,52.0,75,30.05,10.0,SE,4.6,-,N/A,,Clear,140,2012-10-06 14:54:00
8:54 AM,63.0,52.0,67,30.06,10.0,Calm,Calm,-,N/A,,Clear,0,2012-10-06 15:54:00
9:54 AM,66.0,52.0,60,30.06,10.0,SSE,3.5,-,N/A,,Clear,160,2012-10-06 16:54:00
10:54 AM,69.1,52.0,54,30.04,10.0,SSW,4.6,-,N/A,,Clear,200,2012-10-06 17:54:00
11:54 AM,73.0,52.0,48,30.01,10.0,Calm,Calm,-,N/A,,Clear,0,2012-10-06 18:54:00
12:54 PM,75.0,52.0,44,29.99,10.0,Variable,6.9,-,N/A,,Clear,0,2012-10-06 19:54:00
1:54 PM,77.0,51.1,40,29.96,10.0,WSW,3.5,-,N/A,,Clear,250,2012-10-06 20:54:00
2:54 PM,79.0,52.0,39,29.94,10.0,NW,8.1,-,N/A,,Clear,310,2012-10-06 21:54:00
4:54 PM,80.1,50.0,35,29.90,10.0,NNW,8.1,-,N/A,,Clear,340,2012-10-06 23:54:00
5:54 PM,79.0,50.0,36,29.89,10.0,NNW,6.9,-,N/A,,Clear,330,2012-10-07 00:54:00
6:54 PM,73.9,52.0,46,29.89,10.0,NW,6.9,-,N/A,,Clear,320,2012-10-07 01:54:00
7:54 PM,73.0,52.0,48,29.90,10.0,North,6.9,-,N/A,,Clear,360,2012-10-07 02:54:00
8:54 PM,72.0,52.0,49,29.91,10.0,North,6.9,-,N/A,,Clear,10,2012-10-07 03:54:00
9:54 PM,66.9,51.1,57,29.91,10.0,NE,5.8,-,N/A,,Clear,40,2012-10-07 04:54:00
10:54 PM,69.1,51.1,53,29.91,10.0,ENE,3.5,-,N/A,,Clear,70,2012-10-07 05:54:00
11:54 PM,68.0,51.8,56,29.93,10.0,Calm,Calm,-,N/A,,Clear,0,2012-10-07 06:54:00